[[{"header":{"parameterUnit":"m.s-1","parameterCategory":2,"la1":30.2991,"la2":30.254,"lo1":-89.0895,"lo2":-89.0444,"dx":0.0017,"dy":0.0017,"nx":28,"ny":28,"refTime":"2023-01-02T15:00:00:Z","depth":"0","parameterNumber":2,"parameterNumberName":"U-component_of_CURRENTS"},"data":[0,0,0,0,0,0,0,0,0,0,0,0,0,0,0,0,0,0,0,0,0,0,0,0,0,0,0,0,0,0,0,0,0,0,0,0,0,0,0,0,0,0,0,0,0,0,0,0,0,0,0,0,0,0,0,0,0,0,0.3656,0.3657,0,0.3703,0.3704,0.3704,0.3711,0.3711,0.371,0.371,0.3733,0.3734,0.3735,0,0,0,0,0,0,0,0,0,0,0,0,0,0.3579,0.358,0.3656,0.3657,0.3658,0.3703,0.3704,0.3704,0.3711,0.3711,0.371,0.371,0.3733,0.3734,0.3735,0,0,0,0,0,0,0,0,0,0,0,0,0,0.3615,0.3581,0.3656,0.3669,0.3671,0.3703,0.3704,0.3704,0.3711,0.3711,0.371,0.371,0.3733,0.3734,0.3735,0.3746,0,0,0.3738,0.3739,0,0,0,0,0,0,0,0,0.3613,0.3618,0.3666,0.3668,0.3671,0.3704,0.3685,0.3718,0.3711,0.3692,0.371,0.371,0.3723,0.3725,0.373,0.3747,0.3748,0.3738,0.3739,0.374,0.374,0,0,0,0,0,0,0,0.3611,0.3616,0.3672,0.3667,0.367,0.3675,0.368,0.3691,0.3706,0.3694,0.3695,0.3706,0.3724,0.3729,0.3731,0.3749,0.3738,0.3739,0.374,0.374,0.3827,0.3828,0,0,0,0,0,0,0.3611,0.3613,0.367,0.3674,0.3644,0.3677,0.3682,0.3691,0.3706,0.3709,0.3706,0.3706,0.3727,0.373,0.3732,0.3794,0.374,0.3741,0.3741,0.3825,0.3827,0.3829,0,0,0,0,0,0,0.3609,0.3616,0.3669,0.3647,0.3655,0.3679,0.3689,0.3692,0.3705,0.3716,0.3718,0.3717,0.3727,0.373,0.3755,0.3793,0.3741,0.3742,0.3823,0.3826,0.3828,0.3887,0,0,0,0,0,0,0.3607,0.3615,0.3621,0.3647,0.3656,0.3703,0.3689,0.3693,0.3713,0.3713,0.3726,0.3728,0.3727,0.3754,0.3756,0.3793,0.3743,0.3821,0.3824,0.3827,0.3883,0.3891,0.3898,0,0,0,0,0,0.3604,0.3617,0.3621,0.3629,0.3664,0.3704,0.3709,0.3723,0.3714,0.3731,0.3736,0.3728,0.3775,0.3756,0.3759,0.3797,0.382,0.3823,0.3827,0.388,0.389,0.3898,0,0,0,0,0,0,0.3586,0.362,0.3625,0.3647,0.368,0.3707,0.3724,0.3729,0.3745,0.3744,0.3742,0.3745,0.3789,0.3781,0.3759,0.3832,0.3799,0.3803,0.3838,0.3847,0.3855,0.3866,0.3744,0,0,0,0,0,0.3586,0.3605,0.364,0.366,0.3677,0.3699,0.3716,0.3729,0.3748,0.3755,0.3762,0.3776,0.3806,0.3815,0.3837,0.3866,0.3884,0.3895,0.3902,0.3909,0.392,0.3981,0.3995,0.3841,0.3841,0.3841,0,0,0.3586,0.3607,0.3618,0.3658,0.368,0.3712,0.3708,0.3743,0.377,0.3755,0.3787,0.3806,0.3822,0.3866,0.3884,0.3861,0.3964,0.3913,0.3919,0.3927,0.3986,0.4002,0.4015,0.3843,0.3843,0.3842,0,0,0.3595,0.3615,0.3633,0.3665,0.3708,0.3727,0.374,0.3774,0.3792,0.3827,0.3833,0.3872,0.3896,0.3926,0.3941,0.4002,0.4009,0.4009,0.4049,0.4108,0.4122,0.4134,0.4183,0.4199,0.4005,0.4005,0.4005,0,0.3592,0.3619,0.3646,0.3677,0.3705,0.3735,0.3765,0.3795,0.3832,0.3861,0.3845,0.3923,0.3931,0.4002,0.4024,0.4021,0.4051,0.4012,0.4119,0.4131,0.4142,0.419,0.4207,0.4008,0.4008,0.4008,0.4007,0,0.3612,0.3642,0.366,0.3705,0.374,0.3777,0.3823,0.3862,0.3882,0.3912,0.3987,0.4006,0.4054,0.4067,0.4062,0.4153,0.4148,0.4128,0.4095,0.4162,0.4208,0.4224,0.4013,0.4012,0.4011,0.401,0,0,0.3585,0.3658,0.3665,0.3693,0.3759,0.3789,0.3853,0.3922,0.3975,0.4012,0.4081,0.4134,0.4153,0.4173,0.4182,0.4225,0.4327,0.421,0.4212,0.4259,0.4463,0.4448,0.4465,0.4328,0.4331,0.4334,0.4465,0,0.3592,0.3638,0.3683,0.374,0.3769,0.3835,0.3895,0.3965,0.4024,0.4099,0.4146,0.4214,0.4191,0.4226,0.427,0.4326,0.4372,0.4293,0.4392,0.4395,0.4374,0.4484,0.4395,0.4505,0.4481,0.4484,0.4486,0,0.3591,0.3625,0.3666,0.3761,0.3783,0.3822,0.3932,0.3997,0.412,0.4173,0.4254,0.4297,0.4391,0.4346,0.4475,0.4429,0.4454,0.4477,0.4483,0.4461,0.4412,0.4434,0.4535,0.4473,0.4511,0.4509,0.4507,0,0.3533,0.3618,0.3645,0.3674,0.3779,0.382,0.3886,0.4008,0.4084,0.4226,0.4303,0.4405,0.4479,0.4531,0.4594,0.4547,0.4726,0.4663,0.4671,0.4669,0.4609,0.4597,0.4661,0.4746,0.4746,0.4746,0.4745,0,0.3513,0.354,0.3617,0.3632,0.3696,0.3783,0.3871,0.3971,0.4109,0.4209,0.4332,0.4431,0.4533,0.4641,0.4654,0.4742,0.4783,0.4714,0.4719,0.4627,0.4616,0.4568,0.4511,0.4751,0.475,0.4749,0.4748,0,0.3443,0.349,0.3532,0.3628,0.3663,0.3706,0.385,0.3915,0.4078,0.4216,0.427,0.4486,0.4645,0.4738,0.4854,0.4838,0.4788,0.4906,0.4793,0.4782,0.4693,0.4641,0.4466,0.4334,0.4937,0.4937,0.4938,0,0.3409,0.3417,0.3504,0.3524,0.3563,0.3642,0.3697,0.3867,0.3952,0.4237,0.4297,0.4527,0.4665,0.4872,0.4917,0.4988,0.4816,0.4915,0.4799,0.4716,0.4662,0.4401,0.4282,0.4746,0.4745,0.4744,0.4743,0,0.335,0.3374,0.3406,0.3446,0.3487,0.3549,0.3649,0.371,0.3924,0.4078,0.4286,0.4429,0.4694,0.4778,0.4918,0.4926,0.4711,0.4897,0.4849,0.4564,0.4247,0.4113,0.4626,0.4735,0.4736,0.4737,0.4737,0.4737,0.3301,0.3304,0.3336,0.3363,0.3402,0.3427,0.3437,0.3569,0.3702,0.3897,0.4136,0.4325,0.4616,0.482,0.4787,0.4775,0.4648,0.4687,0.4648,0.4403,0.4213,0.4711,0.4795,0.4796,0.4797,0.4798,0.4799,0,0.3231,0.3236,0.3255,0.3266,0.324,0.3308,0.3376,0.3369,0.3457,0.3734,0.3908,0.4238,0.4395,0.4563,0.4711,0.4588,0.4301,0.4482,0.4121,0.4029,0.4551,0.4486,0.4461,0.4461,0.4461,0.4461,0.4461,0.4462,0.3196,0.3169,0.3166,0.309,0.3088,0.3022,0.3019,0.3054,0.3212,0.3413,0.3626,0.3844,0.4289,0.4575,0.4557,0.4444,0.4094,0.3924,0.3848,0.4296,0.4311,0.4325,0.4253,0.418,0.4179,0.3173,0.3166,0.3161]},{"header":{"parameterUnit":"m.s-1","parameterCategory":2,"la1":30.2991,"la2":30.254,"lo1":-89.0895,"lo2":-89.0444,"dx":0.0017,"dy":0.0017,"nx":28,"ny":28,"refTime":"2023-01-02T15:00:00:Z","depth":"0","parameterNumber":3,"parameterNumberName":"V-component_of_CURRENTS"},"data":[0,0,0,0,0,0,0,0,0,0,0,0,0,0,0,0,0,0,0,0,0,0,0,0,0,0,0,0,0,0,0,0,0,0,0,0,0,0,0,0,0,0,0,0,0,0,0,0,0,0,0,0,0,0,0,0,0,0,0.0304,0.0303,0,0.0222,0.0221,0.022,0.0157,0.0156,0.0156,0.0155,0.0019,0.0016,0.0013,0,0,0,0,0,0,0,0,0,0,0,0,0,0.0348,0.0348,0.0304,0.0303,0.0302,0.0222,0.0221,0.0219,0.0157,0.0156,0.0156,0.0155,0.002,0.0016,0.0012,0,0,0,0,0,0,0,0,0,0,0,0,0,0.0303,0.0348,0.0304,0.0262,0.0258,0.0222,0.0221,0.0219,0.0157,0.0156,0.0156,0.0155,0.0021,0.0017,0.0012,-0.0004,0,0,-0.0003,-0.0005,0,0,0,0,0,0,0,0,0.0305,0.0301,0.0269,0.0265,0.026,0.02,0.0186,0.0142,0.0157,0.0194,0.0155,0.0155,0.0076,0.0067,0.0051,-0.0011,-0.0016,-0.0003,-0.0006,-0.0008,-0.001,0,0,0,0,0,0,0,0.0309,0.0304,0.027,0.0268,0.0263,0.0228,0.0221,0.0177,0.0137,0.019,0.0186,0.0179,0.0073,0.0056,0.0048,-0.0018,-0.0003,-0.0007,-0.001,-0.0012,-0.0108,-0.0108,0,0,0,0,0,0,0.0326,0.0307,0.0272,0.0267,0.0283,0.0228,0.022,0.0219,0.0139,0.0127,0.018,0.0177,0.0065,0.0053,0.0043,0.0027,-0.0008,-0.0013,-0.0015,-0.0109,-0.0108,-0.0108,0,0,0,0,0,0,0.0327,0.0324,0.0276,0.0286,0.0278,0.0229,0.0227,0.0217,0.02,0.0132,0.0119,0.0173,0.0064,0.0049,0.0002,0.0021,-0.0015,-0.0019,-0.0109,-0.0108,-0.0108,-0.001,0,0,0,0,0,0,0.0329,0.0325,0.0331,0.0288,0.0278,0.0264,0.0227,0.0216,0.0198,0.0193,0.0122,0.0108,0.0062,0.001,-0.0003,0.0013,-0.0023,-0.0109,-0.0109,-0.0108,-0.0014,-0.0006,0.0,0,0,0,0,0,0.0331,0.0347,0.0332,0.0327,0.0288,0.0265,0.0257,0.0217,0.0199,0.0198,0.0144,0.011,0.0005,0.0006,-0.0009,0.0007,-0.011,-0.0109,-0.0108,-0.0017,-0.0008,-0.0,0,0,0,0,0,0,0.0369,0.0341,0.0323,0.033,0.0303,0.0255,0.0254,0.0225,0.0182,0.0179,0.0108,0.0091,0.006,0.0016,0.0019,-0.002,-0.0055,-0.0057,0.0019,0.0027,0.0034,0.007,-0.0027,0,0,0,0,0,0.0382,0.0387,0.035,0.0355,0.0346,0.0301,0.0287,0.0264,0.0221,0.0202,0.015,0.0097,0.0052,0.0027,-0.0018,-0.0043,-0.0086,-0.0042,-0.0035,-0.0029,-0.001,-0.0068,-0.0064,-0.0105,-0.0105,-0.0105,0,0,0.0397,0.0383,0.0385,0.0363,0.034,0.0342,0.0291,0.0282,0.0284,0.0194,0.0178,0.0119,0.005,0.0024,0.0007,-0.001,-0.0041,-0.0028,-0.0022,-0.0006,-0.0066,-0.0062,-0.0059,-0.0105,-0.0105,-0.0105,0,0,0.044,0.0421,0.0443,0.0428,0.0406,0.0378,0.038,0.0338,0.032,0.0292,0.0232,0.0183,0.0116,0.0071,0.0039,0.0055,-0.0002,0.0044,0.0108,0.0051,0.0055,0.0057,0.0007,0.0004,0.0047,0.0048,0.0048,0,0.0459,0.0481,0.0444,0.0461,0.0457,0.0401,0.0422,0.0399,0.0347,0.0339,0.0302,0.0205,0.014,0.0108,0.0112,0.0073,0.0035,0.0084,0.0062,0.0063,0.0064,0.0012,0.0007,0.0053,0.0052,0.0051,0.0051,0,0.0514,0.0533,0.0546,0.0549,0.0537,0.0548,0.0512,0.0509,0.0474,0.0438,0.0399,0.0305,0.0249,0.0218,0.0167,0.0148,0.0118,0.0079,0.0047,0.0075,0.0017,0.0011,0.0059,0.0058,0.0056,0.0055,0,0,0.0558,0.0582,0.0587,0.0612,0.0587,0.059,0.0602,0.0591,0.0612,0.054,0.0545,0.0445,0.0391,0.0351,0.0277,0.0224,0.0183,0.0166,0.016,0.0128,0.0068,0.0064,0.0056,0.0143,0.0142,0.0142,0.0026,0,0.0613,0.0677,0.0662,0.0717,0.0745,0.071,0.0728,0.0711,0.0678,0.0671,0.0571,0.0536,0.0443,0.0418,0.0351,0.0232,0.0172,0.0219,0.0036,0.0031,0.0033,0.005,0.0102,0.0005,0.0019,0.0018,0.0017,0,0.0673,0.0709,0.0774,0.0822,0.083,0.0852,0.0877,0.0887,0.0858,0.0832,0.0774,0.0689,0.0604,0.0517,0.0332,0.0369,0.0235,0.013,0.0122,0.0086,0.0016,-0.0023,-0.0008,-0.0254,0.0007,0.0007,0.0008,0,0.0729,0.0791,0.0848,0.0859,0.0895,0.0929,0.095,0.094,0.0975,0.0935,0.0948,0.0814,0.0769,0.0585,0.0372,0.0349,0.017,0.0102,-0.0032,-0.0035,-0.0043,-0.0044,-0.0274,-0.0031,-0.0031,-0.0031,-0.003,0,0.0793,0.0844,0.0891,0.0925,0.1019,0.1006,0.1095,0.1101,0.1118,0.118,0.104,0.1057,0.0786,0.0649,0.0426,0.0199,0.0205,-0.0008,-0.006,-0.0008,-0.0005,-0.0261,-0.0378,-0.0035,-0.0034,-0.0033,-0.0033,0,0.0847,0.087,0.0954,0.1018,0.1053,0.1121,0.122,0.128,0.1282,0.1362,0.1357,0.1242,0.1066,0.0788,0.0496,0.0292,-0.0073,-0.0036,0.0051,0.0012,-0.0347,-0.0458,-0.0714,-0.0821,-0.021,-0.0211,-0.0211,0,0.0879,0.0928,0.1035,0.11,0.1138,0.1243,0.1322,0.1364,0.1441,0.1491,0.1542,0.1402,0.1344,0.0918,0.0518,0.0134,-0.0095,-0.0074,-0.0119,-0.0348,-0.0512,-0.0605,-0.0683,-0.0102,-0.0102,-0.0102,-0.0101,0,0.0944,0.0981,0.1051,0.1197,0.1295,0.1421,0.1544,0.1641,0.1705,0.1777,0.1854,0.1814,0.1424,0.1059,0.0535,0.027,-0.0217,-0.008,-0.0347,-0.0459,-0.0545,-0.0676,-0.0051,-0.0099,-0.0099,-0.0099,-0.0099,-0.0099,0.0995,0.1063,0.1164,0.1301,0.1423,0.159,0.172,0.1853,0.2011,0.2164,0.2112,0.2137,0.1608,0.09,0.0469,-0.0226,-0.0249,-0.0433,-0.0554,-0.0632,-0.0719,-0.0077,-0.0164,-0.0164,-0.0165,-0.0165,-0.0165,0,0.1058,0.1138,0.1264,0.1431,0.1573,0.1634,0.1857,0.1996,0.2206,0.2377,0.2458,0.2287,0.1608,0.092,-0.0043,-0.0595,-0.0791,-0.0881,-0.1018,-0.1081,-0.0536,-0.0516,-0.0646,-0.0646,-0.0646,-0.0645,-0.0645,-0.0645,0.1092,0.1215,0.1281,0.1523,0.1648,0.1866,0.2007,0.2222,0.241,0.2652,0.2746,0.2774,0.2306,0.0473,-0.0775,-0.1065,-0.144,-0.151,-0.1732,-0.1381,-0.1349,-0.1319,-0.1332,-0.163,-0.1631,-0.2204,-0.221,-0.2214]}],[{"header":{"parameterUnit":"m.s-1","parameterCategory":2,"la1":30.2991,"la2":30.254,"lo1":-89.0895,"lo2":-89.0444,"dx":0.0017,"dy":0.0017,"nx":28,"ny":28,"refTime":"2023-01-02T15:00:00:Z","depth":"2","parameterNumber":2,"parameterNumberName":"U-component_of_CURRENTS"},"data":[0,0,0,0,0,0,0,0,0,0,0,0,0,0,0,0,0,0,0,0,0,0,0,0,0,0,0,0,0,0,0,0,0,0,0,0,0,0,0,0,0,0,0,0,0,0,0,0,0,0,0,0,0,0,0,0,0,0,0.3357,0.3358,0,0.3403,0.3403,0.3403,0.3416,0.3416,0.3417,0.3417,0.3447,0.3448,0.3449,0,0,0,0,0,0,0,0,0,0,0,0,0,0.3278,0.3279,0.3357,0.3358,0.3359,0.3403,0.3403,0.3403,0.3416,0.3416,0.3417,0.3417,0.3447,0.3448,0.3449,0,0,0,0,0,0,0,0,0,0,0,0,0,0.3313,0.3279,0.3357,0.3373,0.3375,0.3403,0.3403,0.3403,0.3416,0.3416,0.3417,0.3417,0.3447,0.3448,0.3449,0.3454,0,0,0.3452,0.3453,0,0,0,0,0,0,0,0,0.3311,0.3316,0.337,0.3372,0.3375,0.3407,0.3387,0.3421,0.3416,0.3397,0.3417,0.3417,0.3435,0.3437,0.344,0.3455,0.3456,0.3453,0.3453,0.3454,0.3454,0,0,0,0,0,0,0,0.3309,0.3314,0.3371,0.3371,0.3374,0.3378,0.3382,0.3393,0.3412,0.3399,0.3401,0.3411,0.3435,0.3439,0.3441,0.3457,0.3452,0.3453,0.3454,0.3455,0.3543,0.3545,0,0,0,0,0,0,0.3311,0.3312,0.337,0.3373,0.3347,0.3379,0.3384,0.3394,0.3412,0.3416,0.3411,0.3412,0.3437,0.344,0.3442,0.3511,0.3454,0.3455,0.3455,0.3542,0.3544,0.3545,0,0,0,0,0,0,0.3309,0.3315,0.3368,0.3346,0.3354,0.3381,0.3391,0.3394,0.3413,0.3422,0.3425,0.3428,0.3437,0.3441,0.3469,0.351,0.3455,0.3456,0.354,0.3542,0.3545,0.3608,0,0,0,0,0,0,0.3306,0.3314,0.3324,0.3346,0.3355,0.3403,0.3391,0.3395,0.342,0.3422,0.3437,0.344,0.3438,0.3468,0.347,0.351,0.3457,0.3537,0.3541,0.3544,0.3603,0.3612,0.3619,0,0,0,0,0,0.3303,0.3317,0.3324,0.3332,0.3367,0.3404,0.3409,0.3426,0.3421,0.344,0.3447,0.344,0.349,0.347,0.3472,0.3514,0.3536,0.354,0.3544,0.36,0.361,0.3619,0,0,0,0,0,0,0.3287,0.3321,0.3329,0.3352,0.3385,0.3408,0.3427,0.3435,0.3454,0.3456,0.3455,0.3458,0.3505,0.3497,0.3474,0.3549,0.3515,0.3519,0.3557,0.3567,0.3574,0.3583,0.3458,0,0,0,0,0,0.3289,0.331,0.3344,0.3365,0.3383,0.3406,0.3423,0.3438,0.3458,0.3467,0.3477,0.3492,0.3521,0.3532,0.3553,0.3584,0.3598,0.3615,0.3623,0.3629,0.364,0.3695,0.3709,0.3558,0.3558,0.3558,0,0,0.3289,0.3311,0.3323,0.3364,0.3388,0.3418,0.3417,0.3453,0.348,0.3467,0.3504,0.3523,0.3537,0.3582,0.3602,0.3579,0.3682,0.3634,0.364,0.3647,0.3701,0.3715,0.3729,0.356,0.356,0.356,0,0,0.3298,0.3322,0.3342,0.3374,0.3419,0.3437,0.3452,0.3487,0.3508,0.3545,0.3552,0.3592,0.3619,0.3646,0.366,0.3722,0.3728,0.3733,0.3776,0.3829,0.3842,0.3854,0.3899,0.3914,0.3731,0.3731,0.3731,0,0.3298,0.3327,0.3355,0.3387,0.3415,0.3448,0.3478,0.3508,0.3547,0.3577,0.3566,0.3644,0.3653,0.372,0.3746,0.3742,0.3771,0.3736,0.384,0.3852,0.3863,0.3906,0.3922,0.3734,0.3734,0.3734,0.3733,0,0.3318,0.3351,0.3371,0.3418,0.3452,0.349,0.3535,0.3576,0.36,0.3631,0.3707,0.3726,0.3775,0.3789,0.3785,0.3874,0.387,0.3849,0.3815,0.3882,0.3923,0.3939,0.3739,0.3738,0.3737,0.3736,0,0,0.3293,0.3368,0.3376,0.3406,0.3474,0.3502,0.3565,0.3632,0.3685,0.3728,0.3796,0.385,0.3874,0.3892,0.3904,0.3944,0.4044,0.3933,0.3934,0.3976,0.417,0.4138,0.4151,0.4045,0.4048,0.4051,0.4171,0,0.3302,0.3351,0.3395,0.3453,0.3482,0.3548,0.3606,0.3675,0.3734,0.381,0.3857,0.3927,0.391,0.3948,0.399,0.4042,0.4086,0.4013,0.41,0.4102,0.4065,0.4169,0.3865,0.3944,0.4185,0.4188,0.419,0,0.3302,0.3338,0.3382,0.3475,0.3497,0.3538,0.3644,0.3708,0.3828,0.3882,0.3964,0.4008,0.4101,0.4061,0.4183,0.4142,0.4166,0.4186,0.4191,0.4149,0.4099,0.3915,0.3962,0.4215,0.4213,0.4211,0.4209,0,0.3246,0.3333,0.3364,0.3393,0.3496,0.354,0.3605,0.3724,0.3797,0.3937,0.4012,0.4112,0.4187,0.4236,0.4295,0.4254,0.4414,0.4356,0.4347,0.4344,0.4096,0.4067,0.4434,0.4434,0.4434,0.4434,0.4433,0,0.3229,0.3259,0.334,0.3357,0.3424,0.3508,0.3598,0.3695,0.3829,0.3925,0.4046,0.4138,0.4238,0.4337,0.435,0.442,0.4467,0.4387,0.4387,0.4111,0.4083,0.4315,0.4299,0.4438,0.4437,0.4436,0.4436,0,0.3162,0.3213,0.3258,0.3357,0.3394,0.344,0.3583,0.3646,0.3806,0.3938,0.3993,0.4194,0.4338,0.4424,0.453,0.4506,0.4556,0.4556,0.4231,0.4192,0.4429,0.4416,0.4562,0.4562,0.4563,0.4563,0.4563,0,0.313,0.3141,0.3234,0.3258,0.3302,0.3385,0.3439,0.3606,0.3684,0.3956,0.4009,0.4226,0.4342,0.4519,0.4532,0.4582,0.4602,0.4306,0.4167,0.4465,0.445,0.4436,0.4423,0.386,0.3854,0.3849,0.3846,0,0.3073,0.3103,0.3137,0.3184,0.3231,0.3292,0.3391,0.3448,0.3654,0.3795,0.3984,0.411,0.4325,0.4272,0.4376,0.434,0.4276,0.4216,0.4625,0.3885,0.3815,0.3796,0.3804,0.3804,0.3809,0.3812,0.3814,0.3815,0.3026,0.3031,0.307,0.3105,0.3148,0.3174,0.3183,0.3307,0.3427,0.3594,0.3808,0.3906,0.4013,0.4033,0.3937,0.3874,0.415,0.395,0.3958,0.3973,0.3881,0.3816,0.3788,0.3792,0.3795,0.3798,0.3801,0,0.2957,0.2968,0.299,0.301,0.2988,0.3063,0.3124,0.3106,0.3181,0.3391,0.3531,0.3356,0.3389,0.3463,0.3339,0.3377,0.3269,0.3211,0.3035,0.3085,0.3127,0.2983,0.2656,0.2651,0.2647,0.2643,0,0,0.2923,0.29,0.2898,0.2834,0.2843,0.2783,0.278,0.2794,0.2898,0.2932,0.2983,0.3275,0.3436,0.3005,0.298,0.2795,0.2895,0.2686,0.363,0.3479,0.3513,0.361,0.3455,0,0,0,0,0]},{"header":{"parameterUnit":"m.s-1","parameterCategory":2,"la1":30.2991,"la2":30.254,"lo1":-89.0895,"lo2":-89.0444,"dx":0.0017,"dy":0.0017,"nx":28,"ny":28,"refTime":"2023-01-02T15:00:00:Z","depth":"2","parameterNumber":3,"parameterNumberName":"V-component_of_CURRENTS"},"data":[0,0,0,0,0,0,0,0,0,0,0,0,0,0,0,0,0,0,0,0,0,0,0,0,0,0,0,0,0,0,0,0,0,0,0,0,0,0,0,0,0,0,0,0,0,0,0,0,0,0,0,0,0,0,0,0,0,0,0.0194,0.0193,0,0.0116,0.0115,0.0114,0.0055,0.0055,0.0055,0.0054,-0.0077,-0.008,-0.0083,0,0,0,0,0,0,0,0,0,0,0,0,0,0.0237,0.0236,0.0194,0.0193,0.0193,0.0116,0.0115,0.0114,0.0056,0.0055,0.0055,0.0054,-0.0076,-0.008,-0.0084,0,0,0,0,0,0,0,0,0,0,0,0,0,0.0193,0.0236,0.0194,0.0155,0.0151,0.0116,0.0115,0.0113,0.0056,0.0055,0.0054,0.0054,-0.0075,-0.0079,-0.0084,-0.0102,0,0,-0.0098,-0.01,0,0,0,0,0,0,0,0,0.0196,0.0191,0.0162,0.0158,0.0153,0.0096,0.0082,0.0039,0.0056,0.009,0.0054,0.0054,-0.0023,-0.0032,-0.0047,-0.0108,-0.0113,-0.0099,-0.0102,-0.0104,-0.0105,0,0,0,0,0,0,0,0.0199,0.0194,0.0162,0.0161,0.0156,0.0123,0.0116,0.0073,0.0036,0.0087,0.0083,0.0077,-0.0026,-0.0042,-0.005,-0.0115,-0.0099,-0.0103,-0.0106,-0.0108,-0.0201,-0.0201,0,0,0,0,0,0,0.0215,0.0197,0.0164,0.016,0.0175,0.0123,0.0115,0.0114,0.0037,0.0026,0.0078,0.0075,-0.0033,-0.0045,-0.0055,-0.007,-0.0104,-0.0108,-0.0111,-0.0201,-0.0201,-0.02,0,0,0,0,0,0,0.0216,0.0213,0.0167,0.0177,0.0169,0.0123,0.0122,0.0113,0.0097,0.0031,0.0018,0.0072,-0.0034,-0.0048,-0.0094,-0.0076,-0.011,-0.0115,-0.0202,-0.0201,-0.0201,-0.0107,0,0,0,0,0,0,0.0218,0.0214,0.0221,0.0179,0.017,0.0156,0.0122,0.0112,0.0095,0.009,0.0022,0.0009,-0.0036,-0.0086,-0.0098,-0.0083,-0.0118,-0.0202,-0.0201,-0.0201,-0.0111,-0.0104,-0.0098,0,0,0,0,0,0.022,0.0235,0.0222,0.0218,0.018,0.0157,0.0149,0.0112,0.0096,0.0095,0.0044,0.0011,-0.009,-0.009,-0.0104,-0.009,-0.0202,-0.0202,-0.0201,-0.0114,-0.0105,-0.0098,0,0,0,0,0,0,0.0255,0.023,0.0214,0.022,0.0194,0.0147,0.0147,0.012,0.0079,0.0077,0.0009,-0.0007,-0.0038,-0.008,-0.0077,-0.0116,-0.0149,-0.0151,-0.0078,-0.0071,-0.0064,-0.003,-0.0122,0,0,0,0,0,0.0268,0.0274,0.0238,0.0243,0.0235,0.0192,0.0179,0.0157,0.0116,0.0099,0.005,-0.0001,-0.0045,-0.007,-0.0113,-0.0138,-0.018,-0.0137,-0.0131,-0.0125,-0.0107,-0.0164,-0.0161,-0.0198,-0.0198,-0.0198,0,0,0.0282,0.027,0.0272,0.0251,0.0229,0.0231,0.0183,0.0175,0.0176,0.009,0.0075,0.002,-0.0047,-0.0072,-0.0089,-0.0106,-0.0136,-0.0124,-0.0118,-0.0103,-0.0163,-0.0159,-0.0156,-0.0197,-0.0197,-0.0198,0,0,0.0321,0.0305,0.0325,0.0312,0.0291,0.0265,0.0267,0.0228,0.0211,0.0185,0.0128,0.0081,0.0016,-0.0028,-0.0059,-0.0044,-0.0098,-0.0054,0.0006,-0.005,-0.0047,-0.0045,-0.0091,-0.0094,-0.0051,-0.0051,-0.0051,0,0.034,0.036,0.0326,0.0343,0.0339,0.0287,0.0306,0.0284,0.0235,0.0227,0.0194,0.0101,0.0039,0.0006,0.0011,-0.0027,-0.0063,-0.0017,-0.004,-0.0039,-0.0038,-0.0086,-0.0091,-0.0046,-0.0047,-0.0047,-0.0048,0,0.0391,0.0409,0.0421,0.0425,0.0414,0.0423,0.039,0.0387,0.0355,0.0321,0.0284,0.0194,0.0141,0.0111,0.0063,0.0043,0.0016,-0.0023,-0.0055,-0.0028,-0.0082,-0.0088,-0.004,-0.0041,-0.0043,-0.0044,0,0,0.043,0.0454,0.0459,0.0483,0.0461,0.0463,0.0474,0.0463,0.0481,0.0415,0.0417,0.0324,0.0274,0.0235,0.0165,0.0113,0.0074,0.0059,0.0053,0.0023,-0.0038,-0.0051,-0.006,0.0034,0.0033,0.0033,-0.0075,0,0.0481,0.0542,0.0528,0.058,0.0608,0.0575,0.0592,0.0575,0.0543,0.0534,0.044,0.0407,0.0321,0.0299,0.0233,0.0119,0.0063,0.0108,-0.0067,-0.0072,-0.0079,-0.0066,-0.0022,-0.0114,-0.0082,-0.0083,-0.0084,0,0.0537,0.0572,0.0633,0.0679,0.0687,0.0708,0.0731,0.074,0.0709,0.0684,0.0628,0.0549,0.0467,0.0388,0.021,0.0245,0.0121,0.0022,0.0014,-0.003,-0.0096,-0.0138,-0.0127,-0.0095,-0.0094,-0.0093,-0.0092,0,0.059,0.0648,0.0704,0.0714,0.0748,0.0781,0.0801,0.079,0.0821,0.0782,0.0792,0.0664,0.0619,0.0447,0.0243,0.0226,0.0048,-0.0012,-0.0143,-0.0146,-0.0159,-0.0161,-0.0136,-0.0136,-0.0136,-0.0135,-0.0135,0,0.065,0.0699,0.0745,0.0777,0.0867,0.0856,0.0939,0.0944,0.0956,0.1011,0.0879,0.0888,0.0634,0.0498,0.0291,0.007,0.0077,-0.0121,-0.0171,-0.0126,-0.0124,-0.0148,-0.0148,-0.014,-0.0139,-0.0138,-0.0137,0,0.0701,0.0724,0.0804,0.0865,0.0899,0.0964,0.1058,0.1111,0.1112,0.1181,0.1178,0.1059,0.0884,0.062,0.0342,0.0151,-0.0077,-0.0161,-0.0083,-0.0121,-0.025,-0.0244,-0.0324,-0.0326,-0.0327,-0.0328,-0.0328,0,0.0731,0.0777,0.0881,0.0944,0.0981,0.1082,0.1155,0.1194,0.1261,0.1297,0.1341,0.1199,0.1128,0.0713,0.034,-0.0021,-0.0074,-0.0216,-0.0252,-0.0226,-0.0268,-0.026,-0.0252,-0.024,-0.0239,-0.0239,-0.0239,0,0.0791,0.0827,0.0894,0.1035,0.1129,0.1246,0.1362,0.1448,0.1504,0.1563,0.1619,0.1567,0.1185,0.082,0.0323,0.0087,-0.0158,-0.0227,-0.0225,-0.0189,-0.0153,-0.0191,-0.0186,-0.0239,-0.0239,-0.0239,-0.0239,-0.0239,0.0837,0.0901,0.0999,0.1132,0.1248,0.1402,0.1522,0.1638,0.1777,0.1893,0.1835,0.1782,0.1351,0.0729,0.0279,-0.0175,-0.0154,-0.0309,-0.0307,-0.0305,-0.0266,-0.0233,-0.0327,-0.0328,-0.0328,-0.0328,-0.0329,0,0.0895,0.0971,0.1091,0.125,0.1385,0.1448,0.1649,0.1765,0.1945,0.205,0.21,0.1723,0.13,0.0809,0.0128,-0.0282,-0.0307,-0.0398,-0.0352,-0.0348,-0.0345,-0.0308,-0.0381,-0.0383,-0.0384,-0.0386,0,0,0.0925,0.1042,0.1103,0.1332,0.1456,0.1658,0.1788,0.1959,0.2087,0.219,0.2179,0.2098,0.1484,0.0977,0.0402,0.0005,-0.0064,-0.0055,0.0038,0.0167,0.0174,-0.0239,-0.0169,0,0,0,0,0]}],[{"header":{"parameterUnit":"m.s-1","parameterCategory":2,"la1":30.2991,"la2":30.254,"lo1":-89.0895,"lo2":-89.0444,"dx":0.0017,"dy":0.0017,"nx":28,"ny":28,"refTime":"2023-01-02T15:00:00:Z","depth":"4","parameterNumber":2,"parameterNumberName":"U-component_of_CURRENTS"},"data":[0,0,0,0,0,0,0,0,0,0,0,0,0,0,0,0,0,0,0,0,0,0,0,0,0,0,0,0,0,0,0,0,0,0,0,0,0,0,0,0,0,0,0,0,0,0,0,0,0,0,0,0,0,0,0,0,0,0,0.2241,0.2243,0,0.2329,0.233,0.2331,0.2406,0.2407,0.2408,0.2409,0.252,0.2522,0.2524,0,0,0,0,0,0,0,0,0,0,0,0,0,0.212,0.2122,0.2241,0.2243,0.2244,0.2329,0.233,0.2331,0.2406,0.2407,0.2409,0.241,0.2519,0.2521,0.2524,0,0,0,0,0,0,0,0,0,0,0,0,0,0.2184,0.2122,0.2241,0.2294,0.23,0.2329,0.233,0.2331,0.2406,0.2407,0.2409,0.2411,0.2519,0.2521,0.2524,0.2507,0,0,0.2533,0.2534,0,0,0,0,0,0,0,0,0.218,0.2187,0.2285,0.2291,0.2297,0.2361,0.2328,0.2392,0.2405,0.2362,0.241,0.2411,0.247,0.2477,0.2484,0.2512,0.2517,0.2533,0.2535,0.2536,0.2537,0,0,0,0,0,0,0,0.2175,0.2184,0.2273,0.2286,0.2294,0.2308,0.2318,0.234,0.2403,0.2366,0.2372,0.2387,0.2473,0.2481,0.2488,0.2519,0.2533,0.2535,0.2537,0.2538,0.2689,0.2691,0,0,0,0,0,0,0.217,0.218,0.227,0.2276,0.2245,0.2309,0.2321,0.2336,0.2403,0.2415,0.2385,0.239,0.2476,0.2484,0.2492,0.2614,0.2536,0.2538,0.254,0.2687,0.269,0.2692,0,0,0,0,0,0,0.2167,0.2178,0.2267,0.2232,0.2245,0.2309,0.2326,0.2337,0.2396,0.2418,0.243,0.2439,0.2478,0.2488,0.2557,0.2614,0.254,0.2542,0.2684,0.2688,0.2691,0.277,0,0,0,0,0,0,0.2163,0.2176,0.2207,0.2232,0.2247,0.232,0.2325,0.2338,0.2401,0.2409,0.2467,0.2476,0.248,0.2553,0.256,0.2616,0.2544,0.2681,0.2686,0.269,0.2764,0.2776,0.2785,0,0,0,0,0,0.2159,0.2186,0.2208,0.2221,0.2281,0.2321,0.2331,0.2379,0.2403,0.2437,0.2478,0.2477,0.2586,0.2557,0.2565,0.2623,0.2679,0.2684,0.269,0.276,0.2773,0.2785,0,0,0,0,0,0,0.2151,0.2198,0.2222,0.2265,0.2309,0.2337,0.2379,0.2405,0.2462,0.2485,0.25,0.2513,0.2598,0.2596,0.2564,0.268,0.2635,0.2642,0.2686,0.2699,0.2709,0.2708,0.2547,0,0,0,0,0,0.2163,0.2203,0.2242,0.2284,0.231,0.2353,0.2384,0.2417,0.2459,0.2489,0.2528,0.2572,0.2615,0.2647,0.2681,0.2738,0.274,0.2783,0.2793,0.2802,0.2808,0.2856,0.2871,0.2709,0.2709,0.2709,0,0,0.2173,0.2206,0.2231,0.2288,0.2327,0.2367,0.2377,0.244,0.2485,0.2489,0.2578,0.2614,0.2639,0.271,0.2748,0.2723,0.2853,0.2809,0.2816,0.2817,0.2863,0.2879,0.2893,0.2713,0.2712,0.2712,0,0,0.2193,0.2244,0.2279,0.232,0.2389,0.2413,0.2441,0.2498,0.2545,0.2617,0.264,0.2708,0.2771,0.2802,0.2821,0.2907,0.2908,0.2933,0.2986,0.3034,0.3047,0.3059,0.3091,0.3105,0.2937,0.2937,0.2937,0,0.2209,0.2255,0.2297,0.2339,0.2381,0.2437,0.2481,0.2528,0.2605,0.265,0.2663,0.2783,0.281,0.2889,0.2927,0.2932,0.2956,0.2934,0.3047,0.3058,0.3069,0.3099,0.3114,0.2941,0.2941,0.294,0.294,0,0.2237,0.2296,0.2325,0.2395,0.2441,0.2497,0.2556,0.2626,0.2687,0.2732,0.2845,0.2883,0.2956,0.2981,0.2984,0.3084,0.3076,0.3054,0.3011,0.309,0.3117,0.3131,0.2948,0.2946,0.2945,0.2944,0,0,0.2212,0.2323,0.2339,0.2386,0.2481,0.2516,0.2606,0.2693,0.2765,0.285,0.2937,0.3023,0.3065,0.3089,0.3112,0.3155,0.3257,0.315,0.3151,0.3175,0.3369,0.3173,0.3169,0.3265,0.3267,0.3269,0.336,0,0.2229,0.2306,0.2363,0.2453,0.2495,0.2583,0.2658,0.275,0.2835,0.2935,0.3003,0.3099,0.3099,0.3157,0.3203,0.3252,0.3296,0.3234,0.3294,0.3295,0.3106,0.3179,0.3278,0.3369,0.3372,0.3375,0.3376,0,0.2228,0.2284,0.2366,0.2487,0.2518,0.2585,0.2721,0.2801,0.2943,0.3016,0.3121,0.318,0.3288,0.3262,0.3381,0.335,0.3373,0.3389,0.3392,0.3188,0.3124,0.3273,0.34,0.3398,0.3397,0.3395,0.3393,0,0.216,0.2286,0.2354,0.2395,0.2534,0.2606,0.2694,0.2834,0.2918,0.3084,0.3166,0.3282,0.337,0.3419,0.3476,0.345,0.3578,0.3536,0.3375,0.3362,0.3476,0.3462,0.3605,0.3605,0.3605,0.3604,0.3604,0,0.2128,0.2192,0.234,0.2376,0.2478,0.2588,0.2712,0.2822,0.2976,0.3073,0.3215,0.3291,0.3421,0.3504,0.3518,0.3492,0.3619,0.3394,0.3374,0.3508,0.3497,0.3486,0.3471,0.3608,0.3607,0.3606,0.3606,0,0.2039,0.2138,0.2228,0.2389,0.2448,0.2525,0.2714,0.2788,0.2967,0.3096,0.316,0.3345,0.3451,0.354,0.3631,0.3535,0.3531,0.3487,0.3644,0.363,0.3272,0.326,0.3303,0.3297,0.3292,0.3287,0.3284,0,0.1995,0.2033,0.2214,0.2271,0.2356,0.2488,0.2568,0.2761,0.2837,0.3092,0.313,0.3316,0.341,0.3383,0.349,0.35,0.3459,0.3431,0.3324,0.3265,0.3243,0.3239,0.3235,0.3275,0.3274,0.3273,0.3271,0,0.191,0.1996,0.2069,0.2184,0.2283,0.2375,0.2511,0.2548,0.2763,0.2949,0.3028,0.3086,0.3199,0.3254,0.3299,0.3294,0.3429,0.3376,0.3385,0.3284,0.3233,0.3214,0.3216,0.3253,0.3256,0.3258,0.3259,0,0.1855,0.1883,0.1991,0.2075,0.2186,0.2228,0.2318,0.2405,0.2507,0.2777,0.2794,0.2989,0.3164,0.3149,0.3184,0.3175,0.3115,0.2997,0.3024,0.3046,0.2918,0.2812,0.2694,0,0,0,0,0,0.1786,0.1801,0.1869,0.1945,0.2042,0.211,0.226,0.2351,0.2551,0.2537,0.2659,0.2746,0.2812,0.2911,0.2848,0.3072,0.3129,0.2984,0.3007,0.3154,0.3174,0.3047,0,0,0,0,0,0,0.1741,0.1803,0.182,0.1813,0.1838,0.1927,0.2013,0.2151,0.2155,0.237,0.2419,0.2583,0.2687,0.282,0.2797,0.2826,0.2784,0.3107,0.3099,0.3142,0.3161,0.3177,0.3054,0,0,0,0,0]},{"header":{"parameterUnit":"m.s-1","parameterCategory":2,"la1":30.2991,"la2":30.254,"lo1":-89.0895,"lo2":-89.0444,"dx":0.0017,"dy":0.0017,"nx":28,"ny":28,"refTime":"2023-01-02T15:00:00:Z","depth":"4","parameterNumber":3,"parameterNumberName":"V-component_of_CURRENTS"},"data":[0,0,0,0,0,0,0,0,0,0,0,0,0,0,0,0,0,0,0,0,0,0,0,0,0,0,0,0,0,0,0,0,0,0,0,0,0,0,0,0,0,0,0,0,0,0,0,0,0,0,0,0,0,0,0,0,0,0,0.0109,0.0108,0,0.0054,0.0053,0.0052,0.001,0.001,0.001,0.001,-0.0096,-0.0099,-0.0101,0,0,0,0,0,0,0,0,0,0,0,0,0,0.0136,0.0136,0.0109,0.0108,0.0108,0.0054,0.0053,0.0052,0.001,0.001,0.001,0.0009,-0.0095,-0.0099,-0.0102,0,0,0,0,0,0,0,0,0,0,0,0,0,0.0106,0.0136,0.0109,0.0081,0.0078,0.0054,0.0053,0.0052,0.0011,0.001,0.001,0.0009,-0.0094,-0.0098,-0.0102,-0.0117,0,0,-0.0114,-0.0115,0,0,0,0,0,0,0,0,0.0108,0.0105,0.0086,0.0083,0.008,0.004,0.0024,-0.0007,0.0011,0.0035,0.001,0.0009,-0.0055,-0.0062,-0.0072,-0.0122,-0.0127,-0.0114,-0.0116,-0.0118,-0.0119,0,0,0,0,0,0,0,0.011,0.0107,0.0086,0.0085,0.0082,0.0057,0.0053,0.0018,-0.0009,0.0033,0.003,0.0026,-0.0057,-0.0068,-0.0075,-0.0128,-0.0114,-0.0117,-0.012,-0.0121,-0.0199,-0.0198,0,0,0,0,0,0,0.0122,0.0109,0.0088,0.0084,0.0094,0.0058,0.0052,0.0052,-0.0007,-0.0016,0.0026,0.0024,-0.0061,-0.007,-0.0079,-0.0093,-0.0118,-0.0122,-0.0124,-0.0199,-0.0199,-0.0198,0,0,0,0,0,0,0.0123,0.0121,0.009,0.0096,0.0091,0.0058,0.0057,0.0051,0.0041,-0.0011,-0.0021,0.0023,-0.0062,-0.0074,-0.0109,-0.0097,-0.0123,-0.0127,-0.0199,-0.0199,-0.0198,-0.0125,0,0,0,0,0,0,0.0124,0.0121,0.0128,0.0097,0.0091,0.0082,0.0058,0.005,0.0039,0.0036,-0.0018,-0.0028,-0.0063,-0.0103,-0.0113,-0.0103,-0.013,-0.02,-0.0199,-0.0199,-0.0128,-0.0123,-0.0118,0,0,0,0,0,0.0125,0.0136,0.0128,0.0126,0.01,0.0082,0.0077,0.0051,0.004,0.0039,0.0,-0.0026,-0.0107,-0.0106,-0.0118,-0.0109,-0.02,-0.0199,-0.0199,-0.013,-0.0124,-0.0118,0,0,0,0,0,0,0.0148,0.0132,0.0123,0.0128,0.011,0.0076,0.0076,0.0057,0.0027,0.0025,-0.0028,-0.0041,-0.0066,-0.0099,-0.0097,-0.013,-0.0156,-0.0158,-0.01,-0.0094,-0.0089,-0.0061,-0.0133,0,0,0,0,0,0.0158,0.0164,0.014,0.0144,0.0139,0.0109,0.01,0.0085,0.0054,0.0041,0.0003,-0.0037,-0.0072,-0.0092,-0.0127,-0.0148,-0.0183,-0.0149,-0.0144,-0.0139,-0.0125,-0.0176,-0.0174,-0.0197,-0.0197,-0.0197,0,0,0.0169,0.0161,0.0164,0.015,0.0135,0.0137,0.0102,0.0097,0.0099,0.0033,0.0023,-0.0021,-0.0074,-0.0095,-0.0109,-0.0122,-0.0152,-0.0139,-0.0134,-0.0122,-0.0175,-0.0173,-0.0171,-0.0196,-0.0196,-0.0196,0,0,0.0196,0.0187,0.0203,0.0194,0.0181,0.0163,0.0165,0.0137,0.0126,0.0107,0.0063,0.0025,-0.0026,-0.0061,-0.0087,-0.0076,-0.0122,-0.0084,-0.0037,-0.0087,-0.0085,-0.0084,-0.0125,-0.0128,-0.0083,-0.0082,-0.0082,0,0.0209,0.0226,0.0203,0.0216,0.0216,0.0179,0.0195,0.018,0.0144,0.0139,0.0115,0.004,-0.0009,-0.0037,-0.0032,-0.0063,-0.0094,-0.0055,-0.0079,-0.0079,-0.0079,-0.0121,-0.0126,-0.0079,-0.0079,-0.008,-0.008,0,0.0245,0.0262,0.0271,0.0277,0.0272,0.028,0.0258,0.0258,0.0237,0.0211,0.0182,0.0112,0.0069,0.0045,0.0009,-0.0012,-0.0034,-0.0066,-0.0091,-0.0072,-0.0118,-0.0124,-0.0074,-0.0075,-0.0076,-0.0077,0,0,0.0268,0.0293,0.0298,0.032,0.0308,0.0311,0.0323,0.0317,0.0331,0.0282,0.0285,0.0211,0.0172,0.0141,0.0086,0.0041,0.0005,-0.0003,-0.0007,-0.0035,-0.0096,-0.0103,-0.011,-0.003,-0.0031,-0.0031,-0.0127,0,0.0305,0.0353,0.0348,0.0392,0.0414,0.0396,0.0413,0.0403,0.0379,0.0373,0.03,0.0275,0.0208,0.0192,0.0136,0.0039,-0.0007,0.0034,-0.0116,-0.012,-0.0123,-0.0116,-0.0033,-0.0131,-0.0133,-0.0134,-0.0135,0,0.0342,0.0372,0.0423,0.0467,0.0475,0.0497,0.0521,0.0531,0.0508,0.049,0.0445,0.0383,0.0316,0.0257,0.0104,0.0136,0.0035,-0.0047,-0.0053,-0.0085,-0.0138,-0.0157,-0.0146,-0.0145,-0.0144,-0.0144,-0.0143,0,0.0375,0.0427,0.0474,0.0486,0.0522,0.0554,0.0577,0.0571,0.0596,0.0568,0.0573,0.047,0.0432,0.0291,0.0121,0.0114,-0.0049,-0.0089,-0.019,-0.0193,-0.019,-0.0191,-0.0192,-0.0192,-0.0192,-0.0191,-0.0191,0,0.0411,0.0454,0.0505,0.0532,0.061,0.0611,0.0681,0.069,0.0703,0.0739,0.0643,0.0637,0.044,0.032,0.0154,-0.003,-0.0031,-0.0174,-0.0215,-0.0158,-0.0154,-0.0195,-0.0194,-0.0195,-0.0194,-0.0193,-0.0193,0,0.0437,0.0465,0.0534,0.0597,0.0632,0.0688,0.0776,0.0816,0.0823,0.0869,0.0869,0.0764,0.0606,0.0397,0.0164,0.0026,-0.0162,-0.0229,-0.0137,-0.0174,-0.028,-0.0274,-0.0348,-0.0349,-0.0349,-0.035,-0.0351,0,0.0451,0.049,0.0591,0.0646,0.0685,0.0775,0.0839,0.0881,0.0928,0.0946,0.097,0.0845,0.0746,0.0427,0.0188,-0.0128,-0.0179,-0.0275,-0.0289,-0.0261,-0.0295,-0.0288,-0.0282,-0.0352,-0.0352,-0.0353,-0.0353,0,0.0479,0.0518,0.0576,0.07,0.0785,0.0885,0.0983,0.1032,0.1079,0.1083,0.1065,0.09,0.0721,0.0447,0.0202,-0.0029,-0.0214,-0.0285,-0.0285,-0.0299,-0.0268,-0.0299,-0.0291,-0.0356,-0.0355,-0.0355,-0.0355,0,0.0503,0.055,0.0636,0.0746,0.0858,0.0967,0.1018,0.1084,0.1136,0.1156,0.1146,0.0952,0.084,0.0498,0.0271,0.0043,-0.0025,-0.0104,-0.0115,-0.0115,-0.003,0.0046,0.0028,0,0,0,0,0,0.0522,0.058,0.0677,0.0799,0.091,0.0987,0.11,0.1136,0.1188,0.1191,0.1178,0.1014,0.0691,0.0544,0.0317,0.0221,-0.0088,-0.0057,-0.0189,-0.0372,-0.0368,-0.031,0,0,0,0,0,0,0.0532,0.0622,0.0673,0.0824,0.0916,0.1046,0.1126,0.1162,0.1168,0.1184,0.1015,0.095,0.0626,0.0824,0.0311,0.0241,0.0123,-0.0206,-0.0211,-0.0373,-0.037,-0.0368,-0.0307,0,0,0,0,0]}]]